Retour au catalogue

BREEZE-M DEB

TANK

ActifHEO
NORAD 39287·DEBRIS·🇷🇺 Russia

Lancé Sep 29, 2013 depuis Baikonur Cosmodrome

Loading…

Prochains Passages (prochaines 24 heures)

TLE

FraisSource: Space-Track

Époque: Sep 14, 2026, 14:22 UTC

1 39287U 13056C   26257.59912271  .00002094  00000-0  47302-3 0  9996
2 39287  49.5177 266.0168 5161907 246.7899  52.0008  5.33244506247030

Suivez BREEZE-M DEB en temps réel avec AllMySat

Download on the App Store